STARLINK-32376, 61707

Orbit data source: Space-Track

STARLINK-32376, 61707 is a payload satellite owned by SpaceX/Seattle (US) in LEO that was launched on Wed, 30 Oct 2024 UTC via an FALCON 9 launch vehicle from the Air Force Eastern Test Range (AFETR). Payload-class satellites include a variety of spacecraft equipped with specific instruments for various scientific and technological missions. These include communications satellites like Starlink; space stations such as the ISS; scientific satellites like the Hubble; Earth observation satellites from companies like Planet Labs, Umbra, and HawkEye 360; GPS; miniature CubeSats for education and research; and military/defense satellites.

Loading next visibility...
Identifier
61707, 2024-196A
Orbit
LEO
Last TLE update
17 hours ago
Origin
Manufacturer
SpaceX/Seattle
Mission
Operational Commercial Communications
Bus & Motor
STARLINK V2M, Unknown motor
Mass
730 kg wet, ~700 kg dry
Launch date (UTC)
2024-10-30 (9 months ago)
Launch vehicle
FALCON 9
Launch site
Air Force Eastern Test Range (AFETR)
Object type
Payload
Rocket body
Debris
Shape & HBR
Box + 2 Pan, 14.5 m
Radar Cross Section
36.964 m², Large (>1 m²)

Expand to show TLE details & history

TLE from 17 hours ago
0 STARLINK-32376
1 61707U 24196A   25199.74796315  .00001383  00000-0  58852-4 0  9998
2 61707  53.1582 107.6559 0001908  82.6206 277.5012 15.30180880 41353
Epoch: 2025-07-18T17:57Z
TLE epoch observation values (Epoch: 2025-07-18T17:57:04.016Z)
Latitude
0.00003°
Longitude
-98.40578°
Altitude
476.001 km
Speed
7.629 km/s
True Right ascension
07h 10m 37s
True Declination
0° 00' 00"
Sunlit
Object was in daylight at epoch
Visualization orbit readout
Latitude
3.93858°
Longitude
-98.80766°
Altitude
475.508 km
Speed
7.63 km/s
Apparent Right ascension
09h 07m 41s
Apparent Declination
-20° 48' 15"
Sunlit
Object is in daylight
Visualization observer readout
Local Sidereal Time
00:02:28
Azimuth
75.981° E
Elevation
-48.268°
Doppler factor
1
Orbital elements
Apogee altitude
476.837 km
Perigee altitude
474.221 km
Semi-major axis
6,853.666 km
Eccentricity
0.00019
Inclination
53.1582°
RAAN
107.6559°
Arg. of periapsis
82.6206°
True anomaly
277.47952°
Mean anomaly
277.5012°
Eccentric anomaly
277.49036°
Mean motion
3.82524 °/min
Orbital period
94.11 mins
BSTAR
0.000058852
Loading maneuver chart data...
Loading SW <> Apogee altitude chart data...
Loading historical data...
Loading historical data...
Loading historical data...
Loading historical data...
Loading historical data...
Loading historical data...
Loading historical data...
|